Simultaneous Nadir Overpasses (SNOs) Predictions

Prediction of SNOs between METOP-A and NOAA-19 Satellite Orbit:

Table of predicted SNOs for the next 14.0 days since TLE Epoch: 7/27/2013
Index Date (METOP-A) Time (METOP-A) Lat,Lon (METOP-A) SZA (METOP-A ) Date (NOAA-19) Time (NOAA-19) Lat,Lon (NOAA-19) SZA (NOAA-19 ) Distance(km) Time Diff (sec)
1 07/28/2013 18:43:00 74.01,-106.29 55.25 07/28/2013 18:41:51 74.02,-108.51 55.39 68.01 69
2 07/28/2013 19:33:52 -73.52, 59.87 125.18 07/28/2013 19:32:47 -73.55, 59.88 125.14 3.43 65
3 07/28/2013 20:24:32 73.49,-132.85 54.81 07/28/2013 20:23:45 73.51,-132.78 54.84 3.27 47
4 07/28/2013 21:15:14 -73.50, 34.49 125.18 07/28/2013 21:14:50 -73.48, 34.53 125.20 2.74 24
5 07/28/2013 22:05:54 73.47,-158.24 54.81 07/28/2013 22:05:49 73.49,-158.25 54.83 1.97 5
6 07/28/2013 22:56:36 -73.48, 9.11 125.18 07/28/2013 22:56:54 -73.45, 9.06 125.21 3.02 18
7 07/28/2013 23:47:16 73.45, 176.38 54.81 07/28/2013 23:47:53 73.47, 176.29 54.82 3.32 37
8 07/29/2013 00:37:59 -73.41, -16.39 125.23 07/29/2013 00:38:58 -73.43, -16.40 125.21 2.52 59
9 07/29/2013 01:28:40 73.28, 150.66 54.68 07/29/2013 01:29:53 73.30, 151.17 54.65 16.22 73
10 08/07/2013 20:17:27 73.98,-129.95 57.84 08/07/2013 20:16:18 74.01,-132.02 57.96 63.53 69
11 08/07/2013 21:08:18 -73.55, 36.34 122.55 08/07/2013 21:07:13 -73.57, 36.29 122.51 2.84 65
12 08/07/2013 21:58:58 73.52,-156.39 57.44 08/07/2013 21:58:13 73.54,-156.41 57.47 3.01 45
13 08/07/2013 22:49:40 -73.53, 10.95 122.55 08/07/2013 22:49:16 -73.50, 10.94 122.57 3.38 24
14 08/07/2013 23:40:20 73.50, 178.22 57.44 08/07/2013 23:40:16 73.47, 178.24 57.42 2.90 4
15 08/08/2013 00:31:03 -73.46, -14.54 122.59 08/08/2013 00:31:20 -73.48, -14.53 122.58 1.98 17
16 08/08/2013 01:21:43 73.43, 152.73 57.40 08/08/2013 01:22:20 73.45, 152.78 57.41 2.92 37
17 08/08/2013 02:12:25 -73.44, -39.93 122.59 08/08/2013 02:13:24 -73.45, -40.00 122.58 2.78 59
18 08/08/2013 03:03:08 73.26, 127.00 57.27 08/08/2013 03:04:21 73.28, 127.65 57.25 20.88 73




NCC Satellite Simultaneous Nadir Overpasses (
